Regional Weather Roundup
Issued by NWS Grand Forks, ND

Home | Current Version | Previous Version | Graphics & Text | Print | Product List | Glossary On
Versions: 1 2 3 4 5 6 7 8 9 10 11 12 13 14 15 16 17 18 19 20 21 22 23 24 25 26 27 28 29 30 31 32 33 34 35 36 37 38 39 40 41 42 43 44 45 46 47 48 49 50
000
ASUS43 KFGF 250310
RWRFGF
PRAIRIE TO PINES  WEATHER ROUNDUP
NATIONAL WEATHER SERVICE EASTERN NORTH DAKOTA/GRAND FORKS ND
900 PM CST SAT JAN 24 2015

 **SATELLITE DATA USED TO AUGMENT SKY COVER AT AUTOMATED STATIONS**
 *****  WEATHER ACROSS EASTERN NORTH DAKOTA  *****

CITY           SKY/WX    TMP DP  RH WIND       PRES   REMARKS
GRAND FORKS    CLOUDY    24  19  81 N13       29.81R WCI  12
GRAND FRKS AFB CLOUDY    21  16  79 N12       29.82R WCI   9
GRAND FRKS NWS   N/A     23 N/A N/A N9          N/A  WCI  13
DEVILS LAKE    CLOUDY    19  16  86 N10       29.81R WCI   8
FARGO          LGT SNOW  32  29  88 N14       29.74R FOG     WCI  22
WAHPETON ARPT  CLOUDY    32  30  93 N12       29.70R WCI  23
$$

 ***** WEATHER ACROSS CENTRAL AND WESTERN NORTH DAKOTA  *****

CITY           SKY/WX    TMP DP  RH WIND       PRES   REMARKS
BISMARCK       LGT SNOW  33  31  92 W7        29.80R FOG
MINOT          MIX PCPN  31  29  92 N3        29.78R FOG
JAMESTOWN      LGT SNOW  27  25  92 N10       29.76R FOG     WCI  17
MINOT AFB      FRZ RAIN  30  30 100 NE5       29.78R WCI  25
GARRISON         N/A     35  33  92 NW17      29.78R WCI  25
WILLISTON      CLOUDY    38  31  76 NW16      29.89R
DICKINSON      CLOUDY    38  32  79 NW20G32   29.85R
HETTINGER      CLOUDY    38  31  76 NW24G33   29.88R
$$

 *****  OTHER AIRPORT OBSERVATIONS IN OUR AREA  *****

CITY           SKY/WX    TMP DP  RH WIND       PRES   REMARKS
WALHALLA         N/A     16  16 100 N10       29.89R WCI   3
GRAFTON AIRPOR NOT AVBL
VALLEY CITY AR FLURRIES  27  27 100 N13       29.76R WCI  16
CANDO          LGT SNOW  19  16  86 NE8       29.83R WCI   9
CAVALIER APRT  CLOUDY    18  14  86 N14G21    29.87R WCI   4
GWINNER        CLOUDY    32  32 100 N17       29.73R WCI  21
ROLLA          LGT SNOW  16  16 100 NE7       29.82R WCI   6
 ***** THE ABOVE OBSERVATIONS ARE NON NWS ARE NOT QUALITY
       CONTROLLED AND MAY MIS-REPORT RAIN FOR SNOW...
$$

  *****  WEATHER ACROSS NORTHERN MINNESOTA  *****

CITY           SKY/WX    TMP DP  RH WIND       PRES   REMARKS
FLAG ISLAND    CLOUDY    12   3  67 E8        29.86R WCI   1
WARROAD        CLOUDY    14   7  73 NE13      29.85R WCI   0
ROSEAU         CLOUDY    16   9  73 E20       29.83R WCI  -1
HALLOCK        CLOUDY    23  12  63 NE9       29.84R WCI  13
THF RVR FALLS  CLOUDY    19  12  73 NE14      29.78S WCI   6
BAUDETTE       CLOUDY    14   6  70 E12       29.82R WCI   0
WASKISH        CLOUDY    16  10  79 NE13G18   29.80R WCI   2
CROOKSTON      CLOUDY    25  18  74 E12G17    29.79R WCI  14
STEPHEN NDAWN    N/A     19  12  73 E14         N/A  WCI   6
GREENBUSH NDAW   N/A     18  10  73 E12         N/A  WCI   5
$$
  *****  WEATHER ACROSS CENTRAL AND WEST MINNESOTA  *****

CITY           SKY/WX    TMP DP  RH WIND       PRES   REMARKS
FOSSTON        CLOUDY    25  19  80 NE10      29.76R WCI  15
BEMIDJI        CLOUDY    25  19  78 N10       29.74R WCI  15
PARK RAPIDS    CLOUDY    33  27  78 NE10G16   29.69R WCI  25
ELBOW LAKE     LGT SNOW  32  31  98 N7        29.66R
WADENA         CLOUDY    32  28  86 NE8       29.67R WCI  25
DETROIT LAKES  CLOUDY    34  32  93 N7        29.71R
MOORHEAD       LGT SNOW  34  34 100 N14       29.74R WCI  24
FERGUS FALLS   DRIZZLE   32  32 100 N7        29.71R
MORRIS MN      LGT SNOW  34  30  86 N8        29.64R
STAPLES        CLOUDY    34  30  86 NE6       29.67R
$$
  *****  WEATHER ELSEWHERE ACROSS MINNESOTA  *****

CITY           SKY/WX    TMP DP  RH WIND       PRES   REMARKS
DULUTH         CLOUDY    24  19  81 E18G29    29.73R WCI  10
INTRNTL FALLS  PTCLDY    10   3  73 NE5       29.83R WCI   2
ELY            PTCLDY    10   3  72 NE5       29.80R WCI   2
CLOQUET        CLOUDY    25  19  80 E12       29.73R WCI  14
WHEATON        LGT SNOW  30  28  93 NW12      29.70R WCI  21
BRAINERD       CLOUDY    34  28  79 NE8       29.67R
HIBBING        CLOUDY    25  14  63 NE7       29.74R WCI  17
ALEXANDRIA     LGT SNOW  32  30  92 NE7       29.65R FOG
SAINT CLOUD    CLOUDY    36  30  79 NE5       29.63R
MINNEAPOLIS    CLOUDY    36  30  79 E8        29.61S
$$

  *****  WEATHER ACROSS SOUTH DAKOTA  *****

CITY           SKY/WX    TMP DP  RH WIND       PRES   REMARKS
SIOUX FALLS    CLOUDY    37  35  92 CALM      29.56R
BROOKINGS      NOT AVBL
WATERTOWN      LGT SNOW  33  31  92 N14       29.61R FOG     WCI  23
HURON          MIX PCPN  35  33  92 N18G28    29.64R WCI  24
SISSETON       NOT AVBL
ABERDEEN       LGT SNOW  33  31  92 N17       29.71R FOG     WCI  22
MITCHELL       CLOUDY    40  37  89 NW21G28   29.62R
PIERRE         MOCLDY    39  32  76 NW29G41   29.75R
MOBRIDGE       CLOUDY    35  33  92 N10       29.77R
RAPID CITY     MOCLDY    43  26  51 NW37G51   29.93R
$$

  *****  SOME WEATHER IN NEARBY STATES *****

CITY           SKY/WX    TMP DP  RH WIND       PRES   REMARKS
GLASGOW MT     CLEAR     35  29  78 NW10      30.01R
GREAT FALLS MT CLOUDY    43  31  62 SW13      30.13F
CHEYENNE WY    MOCLDY    39  24  55 N15G25    30.10R
SCOTTSBLUFF NE CLOUDY    38 N/A N/A NW22G29   30.04R
OMAHA NE       LGT RAIN  45  38  76 SW5       29.61F
DES MOINES IA  LGT RAIN  44  33  65 W8        29.60F
DAVENPORT IA   CLOUDY    36  31  82 S6        29.64F
CHICAGO IL     CLOUDY    32  29  88 CALM      29.68R
EAU CLAIRE WI  CLOUDY    33  28  81 NE5       29.63S
LA CROSSE WI   CLOUDY    34  30  85 CALM      29.63R
$$

  *****  SOME NATIONAL WEATHER *****

CITY           SKY/WX    TMP DP  RH WIND       PRES   REMARKS
LA GUARDIA NY  PTCLDY    36  24  62 NW14      29.44R
RALEIGH NC     CLEAR     39  25  57 W5        29.78R
ATLANTA GA     CLEAR     39  26  59 W6        29.96R
NEW ORLEANS LA PTCLDY    47  36  65 SW9       30.09S
OKLAHOMA CITY  CLEAR     44  31  60 SW9       29.93R
ALBUQUERQUE NM PTCLDY    42  20  41 N8        30.23S
SALT LAKE CITY CLOUDY    36  26  67 N5        30.47R
LOS ANGELES CA CLEAR     65  39  38 W3        30.00R
BOISE ID       MOCLDY    37  32  82 CALM      30.46S
SEATTLE WA     CLOUDY    56  53  90 SW7       30.25R
$$

*** WEATHER ACROSS MANITOBA...SASKATCHEWAN AND ONTARIO ***
                ***ONTARIO***

CITY           SKY/WX    TMP DP  RH WIND       PRES   REMARKS
GERALDTON      CLEAR     -9 -13  84 W2        29.85R
THUNDER BAY    CLEAR      3  -6  66 N6        29.90R WCI  -8
SIOUX LOOKOUT  PTCLDY    -4  -9  77 NE3       29.91R
TORONTO        MOCLDY    32  27  80 W15G23    29.50S WCI  22
BIG TROUT LK   CLEAR    -13 -17  84 NW7       30.02R WCI -29
PICKLE LAKE    NOT AVBL
DRYDEN         CLEAR     -2  -6  84 E12G17    29.87R WCI -20
KENORA         MOCLDY     5  -4  66 NE12      29.87R WCI -11
$$
                *** MANITOBA***

CITY           SKY/WX    TMP DP  RH WIND       PRES   REMARKS
BRANDON        LGT SNOW  12  10  92 E12       29.87R WCI  -2
DAUPHIN        FLURRIES   9   5  85 E8        29.92R WCI  -4
ISLAND LAKE    CRYSTALS -13 -18  77 CALM      30.05R
PILOT MOUND      N/A     14  12  92 N7          N/A  WCI   4
THE PAS        FLURRIES   1  -6  71 E7        29.97R WCI -11
THOMPSON       MOCLDY    -9 -15  77 E2        30.05S
WINNIPEG       CLOUDY    14   9  79 N8        29.90R WCI   3
LYNN LAKE      CLOUDY    -8 -11  84 SE7       29.93S WCI -22
CHURCHILL      CLEAR    -24 -31  69 W9        30.13S WCI -45
GILLAM         PTCLDY   -20 -26  76 W3        30.09S
$$
                ***SASKATCHEWAN***

CITY           SKY/WX    TMP DP  RH WIND       PRES   REMARKS
ESTEVAN        CLOUDY    36  32  87 NW21G28   29.81R
KINDERSLEY     PTCLDY    30  25  80 NW6       29.97S WCI  24
LLOYDMINSTER   MOCLDY    34  27  75 W16       29.91R WCI  23
PRINCE ALBERT  CLOUDY    18  14  86 S3        29.91R
REGINA         MOCLDY    36  32  87 NW22      29.83R
YORKTON        FLURRIES  16  14  93 E8        29.80S WCI   5
N. BATTLEFORD  CLEAR     34  30  86 W6        29.94S
LA RONGE       FLURRIES   9   5  85 S7        29.88F WCI  -3
SASKATOON      MOCLDY    34  30  86 N9        29.92R
SWIFT CURRENT  CLEAR     32  28  86 W15       29.97R WCI  22
$$
NOTE: THESE ARE AUTOMATED STATIONS WITH LIMITED QUALITY CONTROL
      "FAIR" INDICATES FEW OR NO CLOUDS BELOW 12,000 FEET WITH NO
      SIGNIFICANT WEATHER AND/OR OBSTRUCTIONS TO VISIBILITY.
      SKY/WX - SKY CONDITION AND SIGNIFICANT WEATHER.
      TMP - AIR TEMPERATURE.    DP   - DEWPOINT TEMPERATURE.
      RH  - RELATIVE HUMIDITY.  PRES - PRESSURE.
      HX  - HEAT INDEX.         WCI  - WIND CHILL INDEX.
$


USA.gov is the U.S. government's official web portal to all federal, state and local government web resources and services.